When you browse on this site, cookies collect data to enhance your experience and personalize the content and advertising you see.
Visit our Privacy Policy to learn more. By continuing to use the site, you agree to this use of cookies and data.

Hourly Weather Kievka

Today, 10 July, Friday

Time Temperature Precipitation Wind Pressure Humidity
00:00 +9°C° 0 mm 2 mps 746 mmHg 95%
01:00 +9°C° 0 mm 2 mps 746 mmHg 95%
02:00 +8°C° 0 mm 2 mps 746 mmHg 95%
03:00 +9°C° 0 mm 2 mps 746 mmHg 95%
04:00 +9°C° 0 mm 2 mps 747 mmHg 94%
05:00 +10°C° 0 mm 2 mps 747 mmHg 94%
06:00 +13°C° 0 mm 2 mps 747 mmHg 84%
07:00 +15°C° 0 mm 2 mps 747 mmHg 74%
08:00 +17°C° 0 mm 2 mps 748 mmHg 65%
09:00 +18°C° 0 mm 2 mps 748 mmHg 59%
10:00 +19°C° 0 mm 3 mps 748 mmHg 52%
11:00 +21°C° 0 mm 3 mps 748 mmHg 46%
12:00 +21°C° 0 mm 3 mps 748 mmHg 47%
13:00 +21°C° 0 mm 3 mps 747 mmHg 47%
14:00 +22°C° 0 mm 3 mps 747 mmHg 47%
15:00 +21°C° 0 mm 3 mps 747 mmHg 50%
16:00 +21°C° 0 mm 3 mps 747 mmHg 53%
17:00 +21°C° 0 mm 3 mps 747 mmHg 57%
18:00 +19°C° 0 mm 3 mps 747 mmHg 63%
19:00 +18°C° 0 mm 3 mps 747 mmHg 70%
20:00 +16°C° 0 mm 3 mps 747 mmHg 76%
21:00 +16°C° 0.1 mm 3 mps 747 mmHg 79%
22:00 +16°C° 0.1 mm 3 mps 746 mmHg 82%
23:00 +14°C° 0.1 mm 3 mps 746 mmHg 85%

Tomorrow, 11 July, Saturday

Time Temperature Precipitation Wind Pressure Humidity
00:00 +14°C° 0 mm 3 mps 746 mmHg 84%
01:00 +15°C° 0 mm 4 mps 746 mmHg 84%
02:00 +15°C° 0 mm 4 mps 745 mmHg 84%
03:00 +15°C° 0 mm 4 mps 745 mmHg 86%
04:00 +17°C° 0 mm 4 mps 745 mmHg 88%
05:00 +16°C° 0 mm 5 mps 745 mmHg 90%
06:00 +16°C° 0 mm 5 mps 745 mmHg 90%
07:00 +17°C° 0 mm 4 mps 745 mmHg 90%
08:00 +18°C° 0 mm 4 mps 745 mmHg 90%
09:00 +17°C° 0.1 mm 5 mps 744 mmHg 90%
10:00 +19°C° 0.1 mm 5 mps 744 mmHg 89%
11:00 +19°C° 0.1 mm 5 mps 744 mmHg 89%
12:00 +21°C° 0 mm 5 mps 744 mmHg 83%
13:00 +23°C° 0 mm 5 mps 743 mmHg 77%
14:00 +25°C° 0 mm 5 mps 743 mmHg 72%
15:00 +25°C° 0.7 mm 5 mps 743 mmHg 77%
16:00 +25°C° 0.7 mm 5 mps 743 mmHg 82%
17:00 +23°C° 0.7 mm 4 mps 743 mmHg 88%
18:00 +22°C° 0 mm 4 mps 744 mmHg 83%
19:00 +21°C° 0 mm 4 mps 744 mmHg 78%
20:00 +19°C° 0 mm 4 mps 744 mmHg 73%
21:00 +18°C° 0 mm 3 mps 745 mmHg 72%
22:00 +17°C° 0 mm 3 mps 745 mmHg 71%
23:00 +14°C° 0 mm 3 mps 746 mmHg 70%

Day after tomorrow, 12 July, Sunday

Time Temperature Precipitation Wind Pressure Humidity
00:00 +13°C° 0 mm 3 mps 746 mmHg 74%
01:00 +13°C° 0 mm 2 mps 746 mmHg 78%
02:00 +12°C° 0 mm 2 mps 747 mmHg 82%
03:00 +13°C° 0 mm 2 mps 747 mmHg 82%
04:00 +13°C° 0 mm 2 mps 747 mmHg 82%
05:00 +14°C° 0 mm 2 mps 747 mmHg 81%
06:00 +15°C° 0 mm 2 mps 747 mmHg 77%
07:00 +16°C° 0 mm 2 mps 748 mmHg 73%
08:00 +17°C° 0 mm 2 mps 748 mmHg 69%
09:00 +16°C° 0 mm 2 mps 748 mmHg 74%
10:00 +15°C° 0 mm 2 mps 748 mmHg 79%
11:00 +14°C° 0 mm 2 mps 748 mmHg 84%
12:00 +14°C° 0.1 mm 2 mps 748 mmHg 86%
13:00 +14°C° 0.1 mm 2 mps 748 mmHg 87%
14:00 +14°C° 0.1 mm 1 mps 748 mmHg 88%
15:00 +14°C° 0 mm 1 mps 748 mmHg 89%
16:00 +14°C° 0 mm 1 mps 748 mmHg 90%
17:00 +13°C° 0 mm 1 mps 747 mmHg 91%
18:00 +13°C° 0 mm 1 mps 747 mmHg 90%
19:00 +13°C° 0 mm 1 mps 747 mmHg 90%
20:00 +13°C° 0 mm 1 mps 747 mmHg 90%
21:00 +13°C° 0 mm 1 mps 747 mmHg 90%
22:00 +12°C° 0 mm 1 mps 747 mmHg 90%
23:00 +12°C° 0 mm 1 mps 747 mmHg 90%

13 July, Monday

Time Temperature Precipitation Wind Pressure Humidity
00:00 +12°C° 0 mm 1 mps 746 mmHg 90%
01:00 +12°C° 0 mm 1 mps 746 mmHg 90%
02:00 +12°C° 0 mm 1 mps 746 mmHg 90%
03:00 +12°C° 0.9 mm 1 mps 746 mmHg 93%
04:00 +12°C° 0.9 mm 1 mps 745 mmHg 95%
05:00 +12°C° 0.9 mm 1 mps 745 mmHg 98%
06:00 +12°C° 0.6 mm 1 mps 745 mmHg 98%
07:00 +12°C° 0.6 mm 2 mps 745 mmHg 98%
08:00 +13°C° 0.6 mm 2 mps 744 mmHg 98%
09:00 +13°C° 0.2 mm 2 mps 744 mmHg 97%
10:00 +13°C° 0.2 mm 2 mps 744 mmHg 97%
11:00 +13°C° 0.2 mm 2 mps 744 mmHg 96%
12:00 +14°C° 0.3 mm 2 mps 744 mmHg 97%
13:00 +13°C° 0.3 mm 3 mps 743 mmHg 97%
14:00 +13°C° 0.3 mm 3 mps 743 mmHg 97%
15:00 +13°C° 0 mm 3 mps 742 mmHg 96%
16:00 +13°C° 0 mm 3 mps 742 mmHg 95%
17:00 +14°C° 0 mm 3 mps 742 mmHg 94%
18:00 +13°C° 0 mm 3 mps 742 mmHg 95%
19:00 +13°C° 0 mm 3 mps 741 mmHg 95%
20:00 +13°C° 0 mm 3 mps 741 mmHg 96%
21:00 +13°C° 0 mm 3 mps 741 mmHg 95%
22:00 +13°C° 0 mm 3 mps 740 mmHg 95%
23:00 +12°C° 0 mm 3 mps 740 mmHg 95%

14 July, Tuesday

Time Temperature Precipitation Wind Pressure Humidity
00:00 +12°C° 0 mm 3 mps 740 mmHg 95%
01:00 +12°C° 0 mm 4 mps 739 mmHg 95%
02:00 +12°C° 0 mm 4 mps 739 mmHg 94%
03:00 +12°C° 0.1 mm 4 mps 739 mmHg 95%
04:00 +12°C° 0.1 mm 4 mps 738 mmHg 95%
05:00 +12°C° 0.1 mm 4 mps 738 mmHg 95%
06:00 +13°C° 0 mm 4 mps 738 mmHg 93%
07:00 +13°C° 0 mm 4 mps 738 mmHg 91%
08:00 +13°C° 0 mm 4 mps 738 mmHg 90%
09:00 +14°C° 0 mm 4 mps 738 mmHg 85%
10:00 +15°C° 0 mm 5 mps 738 mmHg 81%
11:00 +16°C° 0 mm 5 mps 738 mmHg 77%
12:00 +16°C° 0 mm 5 mps 738 mmHg 74%
13:00 +16°C° 0 mm 5 mps 738 mmHg 72%
14:00 +17°C° 0 mm 5 mps 738 mmHg 69%
15:00 +18°C° 0 mm 4 mps 738 mmHg 68%
16:00 +19°C° 0 mm 4 mps 739 mmHg 66%
17:00 +19°C° 0 mm 4 mps 739 mmHg 64%
18:00 +18°C° 0 mm 3 mps 739 mmHg 71%
19:00 +17°C° 0 mm 3 mps 739 mmHg 79%
20:00 +15°C° 0 mm 2 mps 739 mmHg 86%
21:00 +13°C° 0 mm 3 mps 739 mmHg 86%
22:00 +13°C° 0 mm 3 mps 739 mmHg 86%
23:00 +12°C° 0 mm 3 mps 739 mmHg 86%

15 July, Wednesday

Time Temperature Precipitation Wind Pressure Humidity
00:00 +11°C° 0 mm 3 mps 739 mmHg 84%
01:00 +11°C° 0 mm 3 mps 740 mmHg 82%
02:00 +10°C° 0 mm 3 mps 740 mmHg 80%
03:00 +10°C° 0 mm 3 mps 740 mmHg 80%
04:00 +10°C° 0 mm 3 mps 740 mmHg 80%
05:00 +10°C° 0 mm 3 mps 740 mmHg 79%
06:00 +12°C° 0 mm 4 mps 740 mmHg 72%
07:00 +14°C° 0 mm 4 mps 740 mmHg 64%
08:00 +16°C° 0 mm 5 mps 740 mmHg 56%
09:00 +17°C° 0 mm 5 mps 740 mmHg 53%
10:00 +19°C° 0 mm 5 mps 740 mmHg 49%
11:00 +20°C° 0 mm 5 mps 740 mmHg 46%
12:00 +20°C° 0 mm 5 mps 741 mmHg 50%
13:00 +19°C° 0 mm 4 mps 741 mmHg 54%
14:00 +19°C° 0 mm 4 mps 741 mmHg 58%
15:00 +18°C° 0.1 mm 4 mps 742 mmHg 62%
16:00 +17°C° 0.1 mm 4 mps 742 mmHg 66%
17:00 +17°C° 0.1 mm 4 mps 743 mmHg 70%
18:00 +16°C° 0 mm 3 mps 743 mmHg 74%
19:00 +14°C° 0 mm 2 mps 743 mmHg 77%
20:00 +13°C° 0 mm 2 mps 744 mmHg 81%
21:00 +12°C° 0 mm 2 mps 744 mmHg 86%
22:00 +10°C° 0 mm 1 mps 745 mmHg 90%
23:00 +9°C° 0 mm 1 mps 745 mmHg 95%
Show more